ECMWFFLT2_925_thetae_057.txt.gz
Theta_e
327 326 326 328 323 320 322 320 315 318 324 321 312 311 313 312 311 312 310 311 315 320 325 330 331 331 330 332 332 333 337 338 342 349 349 346 345 347 352 359 360 361 363 365 366 366 365 367 366 366 365 365 366 367 369 371 371 371 370 368 368 366 366
326 327 327 326 325 324 322 315 316 323 324 322 317 312 313 313 312 312 310 310 312 312 316 326 332 330 329 330 332 332 337 337 340 345 347 345 344 346 352 358 360 360 361 364 366 366 366 367 367 367 366 366 366 368 370 370 370 371 370 368 366 366 366
324 327 326 323 325 327 324 320 323 323 315 313 314 312 312 312 312 312 310 311 312 310 314 323 329 329 330 331 332 332 333 335 336 339 342 345 344 344 350 356 360 362 361 363 366 366 365 367 368 368 367 367 367 368 369 370 370 371 370 368 367 366 366
324 327 323 317 317 323 326 325 326 324 316 313 313 313 313 311 311 312 311 310 310 315 322 326 329 332 330 330 332 333 332 334 333 334 337 341 344 345 348 352 358 360 359 361 366 366 365 366 367 367 368 367 367 369 368 369 370 370 369 368 367 368 367
322 320 321 319 318 320 320 318 319 318 318 318 317 314 313 311 311 312 312 311 310 320 330 331 331 333 331 331 333 332 332 332 334 336 336 341 345 347 347 349 354 360 360 361 363 365 364 365 367 366 367 367 367 367 368 369 369 369 369 369 368 369 368
316 318 325 326 324 324 321 318 318 317 317 315 313 313 312 312 310 311 312 310 311 323 332 332 332 332 331 332 332 331 332 331 333 335 336 341 346 347 346 349 350 356 360 359 361 364 364 363 367 367 367 367 366 367 368 368 368 368 368 368 368 369 368
321 325 328 326 325 327 325 323 323 325 322 314 310 310 312 312 311 311 311 309 314 328 334 330 331 332 330 332 332 332 332 331 332 332 335 340 344 347 348 345 347 352 358 360 361 363 363 363 364 365 366 366 366 366 367 366 367 367 367 366 367 369 369
325 327 327 328 327 326 324 323 326 325 322 320 317 316 316 314 311 311 311 310 315 328 334 331 330 331 330 331 331 331 331 332 333 334 334 339 343 346 346 346 346 349 354 361 363 365 367 365 364 365 365 365 366 366 366 365 366 366 366 366 366 369 369
319 319 321 322 322 324 322 323 325 325 325 325 323 321 319 316 312 312 311 309 315 328 336 333 331 330 329 329 329 329 330 332 333 332 335 340 348 350 350 350 349 346 354 365 368 369 370 367 363 364 366 365 365 365 364 365 366 366 366 365 366 369 369
314 314 316 316 318 322 322 324 326 326 326 324 320 317 314 313 314 315 312 310 317 333 336 332 332 331 330 331 329 329 330 331 333 338 340 346 354 356 354 353 353 353 364 370 371 373 371 366 363 363 364 364 365 364 365 364 365 365 366 365 366 368 369
316 320 323 326 324 320 317 320 324 324 326 326 323 316 312 314 316 314 316 317 320 327 333 332 332 331 331 332 330 330 332 332 335 343 346 347 353 357 355 354 355 360 366 367 370 371 368 364 361 361 362 362 363 364 364 363 364 365 365 366 366 368 369
325 331 330 329 328 322 318 319 321 324 327 325 321 315 316 320 315 311 321 326 320 323 332 333 331 331 332 331 331 332 334 334 335 342 345 344 348 353 357 357 358 360 362 364 367 367 365 362 361 361 360 361 362 362 363 363 363 364 365 365 367 369 369
328 333 329 326 328 326 326 324 322 323 325 323 319 317 322 325 316 313 325 329 323 327 334 332 332 333 332 331 332 334 335 335 336 340 340 338 340 349 356 360 362 362 362 363 366 365 364 361 361 360 360 360 362 361 362 363 362 362 363 366 366 368 370
327 331 328 328 327 324 326 327 326 326 326 324 323 322 325 327 322 323 329 331 328 331 333 332 332 332 332 331 333 334 333 333 334 335 335 335 336 342 349 356 361 362 363 366 366 366 366 364 362 361 361 361 361 361 362 362 362 360 362 364 366 367 370
323 325 326 326 325 324 324 324 327 328 326 325 325 324 326 326 324 327 330 329 329 333 333 333 334 333 333 333 332 333 333 333 334 333 332 333 335 336 343 352 357 360 361 364 368 369 368 367 364 361 361 361 361 361 361 360 360 359 360 363 365 366 369
320 322 324 323 324 324 321 320 325 327 323 323 324 325 327 325 323 325 323 321 327 334 335 333 334 335 334 335 334 333 333 333 333 333 332 333 335 334 337 344 352 356 358 361 368 369 366 367 364 362 361 362 361 360 360 360 360 359 359 361 364 366 369
318 321 322 322 321 320 318 319 324 326 326 326 327 327 329 329 328 325 321 322 331 336 335 333 334 333 334 334 334 333 334 335 333 333 333 333 334 335 335 337 341 348 351 353 360 363 363 364 364 362 361 361 362 361 360 360 360 360 358 359 364 367 368
317 319 321 320 318 317 319 324 327 327 327 327 326 326 329 329 329 328 328 331 335 334 333 333 333 333 334 334 335 333 334 335 333 334 333 332 333 334 335 334 335 338 344 350 353 354 357 360 361 361 359 359 361 361 360 360 361 360 359 359 361 367 368
317 318 319 319 317 318 323 327 327 327 327 326 326 327 328 328 327 328 330 330 331 332 332 333 333 334 333 333 334 334 331 333 333 332 333 336 336 336 335 338 344 349 353 358 357 354 353 353 356 360 360 359 360 361 361 362 361 361 360 359 361 367 368
319 318 318 319 321 322 325 327 328 328 329 328 325 325 326 327 328 327 329 328 330 330 330 331 332 333 333 332 332 333 331 332 332 332 332 333 336 337 333 339 356 368 367 364 363 364 364 360 355 355 358 359 361 361 361 361 361 362 362 360 361 365 369
319 318 316 319 321 322 324 326 329 330 330 329 326 322 325 328 328 328 329 329 329 329 329 330 330 330 331 331 331 330 329 329 330 331 334 335 335 333 335 346 364 372 370 365 365 366 368 364 357 353 355 357 360 361 362 361 361 362 362 361 361 364 370
318 317 316 317 318 318 321 324 329 334 332 332 332 326 326 331 330 329 330 331 331 332 331 331 331 330 332 331 331 331 329 333 336 333 330 330 335 343 350 359 365 365 366 368 367 367 369 368 364 358 354 357 361 362 363 362 362 363 362 362 361 364 369
317 316 316 317 316 319 324 326 329 332 329 333 334 326 325 333 335 332 333 335 335 336 338 339 339 339 337 332 332 339 341 344 352 353 347 347 353 358 361 363 361 363 367 370 368 368 369 370 369 364 357 357 361 361 362 362 361 362 363 363 362 364 368
317 316 316 316 317 320 325 328 329 328 328 332 329 321 324 338 342 339 338 339 340 343 347 347 344 341 337 330 335 346 347 348 356 361 360 361 360 359 360 362 363 365 367 368 368 369 368 369 369 364 358 359 360 361 362 362 360 361 363 363 363 363 366
315 316 315 315 316 321 323 326 329 329 328 327 323 322 332 342 342 339 339 340 342 345 347 347 343 342 341 337 342 349 347 351 358 359 358 358 359 357 358 362 362 362 364 368 369 368 369 371 369 363 357 358 361 361 363 363 361 361 363 363 363 365 366
313 314 315 314 317 320 321 324 327 327 326 323 324 331 340 340 337 339 340 340 342 343 343 344 346 345 344 345 346 347 348 354 359 358 356 358 359 360 361 363 362 361 364 369 369 367 368 367 365 362 359 359 361 363 365 364 363 359 361 364 364 365 367
313 314 315 315 317 320 319 320 323 323 325 327 330 335 337 334 334 337 337 338 344 344 340 341 344 344 345 346 347 347 349 355 356 355 357 358 357 357 359 361 362 362 365 369 369 368 368 366 363 361 361 360 363 366 366 366 362 360 361 364 365 366 367
314 313 314 317 321 323 321 321 323 326 328 329 332 334 334 332 333 336 336 338 343 344 342 341 342 345 347 347 348 350 352 353 354 354 356 356 356 356 357 359 360 361 364 367 366 365 368 369 365 362 362 365 366 367 367 364 361 360 363 365 366 368 368
317 316 317 321 323 324 324 323 325 326 327 328 330 332 334 334 334 336 339 340 341 342 342 341 341 343 345 347 348 350 350 351 352 353 353 353 354 355 357 358 359 361 362 365 364 363 365 367 367 365 365 366 367 367 368 366 364 364 366 368 369 369 368
319 319 320 321 322 323 322 322 322 322 323 324 326 330 333 335 335 336 338 340 341 341 341 340 341 342 343 346 348 348 348 350 351 351 351 352 353 355 357 358 359 360 361 362 363 362 363 364 366 367 368 368 368 369 370 369 367 368 369 370 370 370 369
318 319 320 320 321 321 321 320 320 321 322 323 323 325 329 333 334 335 336 338 339 340 341 342 344 342 343 345 347 349 349 350 351 351 351 353 355 357 358 358 360 360 361 361 362 362 361 361 362 363 365 367 367 366 367 368 368 368 368 369 368 368 369
316 317 319 319 319 319 319 319 320 320 321 321 321 324 328 331 333 334 336 336 338 339 340 342 344 344 343 345 347 349 350 350 351 352 352 355 357 358 358 358 359 360 360 360 360 360 361 360 360 360 362 363 363 363 364 366 368 368 367 367 367 368 368
315 316 317 317 317 317 317 318 318 319 320 322 325 327 329 331 332 335 336 336 337 337 338 340 343 344 345 346 347 348 349 350 351 352 352 355 357 358 358 357 358 358 358 358 358 358 358 358 360 360 361 362 363 364 365 367 369 370 369 369 368 368 369
314 314 315 316 316 316 317 317 319 320 322 324 325 325 327 328 330 332 332 334 337 337 336 338 341 343 346 347 346 347 348 349 350 351 352 354 356 357 356 356 356 355 355 356 356 356 355 356 356 357 358 359 362 362 363 366 369 369 369 370 369 368 369
314 314 316 316 316 317 317 318 319 320 320 321 322 323 325 326 328 329 329 330 335 339 338 337 339 342 344 346 346 347 349 349 350 352 353 354 355 355 355 355 355 354 353 353 353 353 353 354 354 353 355 355 357 358 359 361 364 365 365 366 366 366 366
314 314 315 316 316 316 316 316 317 318 318 320 321 322 323 325 325 326 327 328 331 337 339 338 339 341 344 344 345 347 347 348 349 351 352 353 354 354 353 353 353 353 352 352 351 351 352 352 352 352 352 352 353 355 356 358 359 359 359 359 359 360 360
315 315 315 315 315 315 315 315 316 317 317 319 320 321 323 325 325 325 327 327 329 334 339 340 339 342 344 343 344 345 346 347 347 349 351 352 353 353 352 351 351 351 350 349 349 349 349 350 350 350 350 351 351 351 352 354 355 355 354 354 354 354 353

ECMWFFLT2_925_thetae_060.txt.gz
Theta_e
329 328 328 330 326 321 323 320 315 317 324 322 311 310 312 310 310 311 311 310 316 320 324 329 331 330 331 332 332 333 337 345 348 351 350 345 348 353 352 353 356 356 358 360 361 363 365 365 363 363 364 363 365 367 368 367 366 366 364 364 364 364 364
329 329 327 330 329 326 322 315 316 323 326 323 316 311 312 312 311 311 310 309 311 312 316 326 330 330 331 331 332 332 335 344 349 349 351 348 348 351 352 354 355 353 356 361 364 363 365 365 364 364 365 365 367 367 369 369 368 369 366 365 366 365 365
327 329 327 325 328 329 325 321 325 323 314 314 315 311 311 312 312 312 310 310 311 310 314 323 327 329 332 331 332 333 331 340 347 348 351 351 349 350 352 351 354 354 356 361 365 364 365 366 364 365 366 365 367 368 370 371 370 370 369 367 367 366 365
326 327 326 319 320 326 327 326 328 324 317 315 314 313 312 312 313 313 312 311 311 315 322 327 329 330 332 333 335 335 332 335 346 349 349 352 351 353 353 351 354 357 357 361 366 364 365 366 366 365 365 364 366 368 371 371 371 372 370 368 367 367 366
323 320 324 322 321 323 322 320 319 319 319 319 317 315 312 312 312 312 313 311 311 320 331 332 331 334 333 333 336 336 334 333 343 351 351 351 350 352 352 351 354 359 359 362 366 365 366 366 367 365 364 365 364 367 371 371 371 371 370 369 368 366 366
316 318 326 328 327 326 323 320 318 318 318 315 314 313 312 311 311 311 312 311 312 324 335 334 333 334 333 332 334 334 334 333 339 348 349 352 353 351 352 351 352 357 360 362 365 367 366 365 368 366 365 366 365 367 370 370 371 371 371 370 368 366 367
321 326 329 328 327 329 327 323 324 325 322 314 309 310 311 311 310 311 311 310 315 330 338 334 333 335 332 333 335 333 334 334 336 341 344 351 353 350 351 349 347 353 358 362 366 368 366 366 367 367 366 366 365 367 369 369 371 371 370 370 369 367 366
330 329 327 328 329 329 326 324 326 327 323 320 317 315 316 312 309 310 311 309 316 330 340 335 334 336 332 332 335 333 333 333 336 340 342 350 353 352 350 348 347 353 356 364 370 371 370 368 368 369 367 367 367 367 367 369 370 371 369 370 369 368 366
324 322 321 323 325 325 325 324 326 326 326 327 323 320 319 315 310 311 310 309 315 329 341 336 332 333 331 332 331 332 334 334 334 337 343 353 356 356 354 353 355 355 359 368 374 375 373 370 369 370 369 369 368 367 368 368 369 370 370 369 369 369 368
318 315 313 315 319 322 324 326 325 325 326 325 321 317 314 312 315 315 311 310 318 334 340 335 332 330 331 333 331 331 334 335 336 344 353 358 361 360 360 360 358 357 365 374 377 378 375 370 369 371 370 369 368 367 368 369 369 369 369 368 368 370 370
321 319 321 324 325 321 318 321 323 324 325 326 324 316 311 314 316 314 316 320 321 329 335 335 333 332 331 334 333 332 337 339 344 361 366 362 363 363 361 364 362 363 370 378 382 379 375 369 366 370 370 369 369 369 369 368 368 369 369 368 368 369 371
328 332 333 333 331 323 319 320 321 323 325 325 322 315 316 323 316 311 327 337 323 324 334 335 333 334 334 335 332 332 341 346 349 360 363 356 355 360 363 370 378 380 378 381 384 380 373 368 366 368 369 368 369 370 370 369 367 368 369 368 368 369 371
329 334 334 334 334 330 327 324 322 323 325 323 319 317 322 327 318 314 332 339 326 327 335 332 332 334 333 335 334 333 339 345 348 351 353 347 345 351 359 368 379 384 385 388 388 381 375 370 366 366 367 367 368 369 369 369 367 367 368 368 369 370 369
327 330 332 333 332 329 329 328 327 326 325 323 322 323 326 328 325 326 335 336 332 333 336 332 332 335 333 335 336 333 337 342 344 344 343 341 340 346 356 365 371 377 382 386 387 385 381 375 370 368 366 368 369 369 368 368 367 367 368 368 370 370 370
324 328 331 331 331 330 326 326 329 328 325 325 323 325 326 326 326 328 331 334 334 335 335 335 335 338 339 338 338 337 340 339 338 338 335 336 342 347 352 358 366 373 377 380 384 386 383 378 373 367 366 367 368 366 367 367 367 367 367 369 370 370 370
321 325 328 328 329 329 322 321 327 327 324 323 323 325 327 325 324 325 324 323 329 335 336 334 335 337 339 338 337 338 339 338 335 335 336 339 346 347 352 360 367 370 371 373 379 378 374 373 371 367 367 366 364 364 365 365 367 367 366 370 371 370 370
320 323 326 326 325 323 320 322 327 329 327 328 326 327 329 328 328 325 321 323 334 341 338 333 334 335 335 338 336 334 338 341 340 337 337 340 341 344 354 365 367 364 362 366 371 371 367 368 366 364 366 366 364 365 364 364 366 366 365 369 372 371 371
320 322 324 325 322 319 321 326 330 331 330 330 328 327 329 330 329 329 328 333 341 340 336 334 337 337 338 339 338 337 341 342 338 335 337 336 335 338 346 351 353 361 368 370 370 369 367 366 365 362 362 364 364 363 363 365 365 365 364 365 369 372 371
320 320 321 321 320 321 326 329 332 330 330 331 330 331 331 330 329 330 332 336 340 340 337 335 338 339 338 337 337 337 337 338 335 335 337 337 339 340 342 347 355 369 375 372 368 366 360 358 361 364 361 362 364 365 364 365 365 366 364 364 366 371 372
320 320 320 320 322 325 327 331 331 329 330 330 327 327 331 330 330 333 334 336 338 338 335 334 335 337 335 336 337 335 335 335 333 331 333 334 335 337 340 355 374 381 374 365 365 364 359 353 354 361 362 362 363 365 365 366 365 366 365 364 365 369 371
320 319 318 320 321 322 325 328 330 329 330 331 328 324 327 331 331 331 334 334 334 333 332 333 333 334 333 335 336 333 332 331 330 337 341 338 335 341 351 363 375 377 370 366 365 363 362 357 352 354 358 361 363 365 366 366 366 366 366 365 364 368 371
320 319 319 320 318 319 322 326 329 330 330 330 331 327 326 330 331 329 332 333 332 331 331 331 332 334 334 333 333 331 331 333 342 353 357 354 350 354 361 363 368 370 372 372 367 365 365 363 358 356 356 357 362 367 366 364 365 365 367 367 365 366 370
319 319 320 320 318 319 325 328 328 330 329 331 332 326 323 329 330 329 329 330 330 332 334 335 333 332 332 333 338 340 340 347 355 359 359 358 356 357 363 365 364 367 370 369 368 365 365 363 362 362 358 358 363 368 368 364 363 364 367 367 365 365 369
319 319 319 319 318 321 327 328 327 328 331 333 330 322 324 335 339 335 331 331 336 343 346 345 339 334 334 340 346 346 343 351 358 360 361 361 359 359 362 363 362 362 363 365 368 368 366 367 368 367 364 361 364 369 369 365 363 364 365 366 365 365 367
317 318 318 317 318 323 328 329 330 330 330 327 326 326 334 344 344 340 338 340 344 347 348 346 343 342 343 345 346 346 346 350 356 359 359 361 360 360 358 359 362 363 360 363 369 369 367 370 370 370 369 366 365 369 369 367 366 364 364 366 366 365 366
316 317 318 317 319 323 326 327 328 329 330 328 329 336 342 342 339 341 343 345 345 344 344 344 345 344 343 344 345 347 347 349 353 356 357 359 360 359 356 356 362 363 360 363 369 370 370 370 370 367 368 368 368 369 371 369 367 365 364 366 367 365 365
315 317 317 318 320 323 324 328 330 332 334 334 336 338 338 336 338 340 342 343 344 344 342 342 341 340 342 343 345 346 348 349 352 354 357 358 359 358 356 355 358 361 362 364 368 369 369 370 370 368 366 368 369 371 371 369 366 364 365 367 366 367 367
315 315 317 320 324 326 325 327 329 330 332 333 334 334 335 337 337 338 340 342 343 342 342 341 339 338 341 342 341 343 347 349 351 353 357 357 356 355 355 356 357 359 362 365 368 367 366 368 371 369 365 368 369 369 369 368 366 365 366 368 368 369 368
317 317 319 323 326 327 325 325 325 325 326 327 328 329 332 335 335 336 338 340 340 340 340 340 340 340 342 341 341 342 344 347 350 353 354 355 355 355 355 356 357 358 360 364 366 365 366 367 370 369 366 366 367 369 368 368 367 366 366 369 371 369 369
320 320 321 323 325 326 324 322 322 322 324 325 324 325 329 331 333 334 336 337 339 339 339 340 342 343 343 343 342 343 345 347 348 352 353 354 354 355 357 358 359 359 362 362 363 364 364 365 367 369 369 368 368 370 370 368 367 365 366 369 372 370 370
319 320 322 323 324 324 324 321 321 322 322 322 324 326 328 329 329 331 333 334 336 337 339 341 342 342 342 344 344 345 347 349 350 352 353 353 355 356 358 359 360 360 361 363 362 363 363 363 364 367 369 370 370 370 370 370 367 367 368 371 372 371 371
318 319 321 322 321 321 321 320 320 322 321 323 325 326 326 326 326 328 329 330 331 334 336 340 341 341 342 344 346 348 349 351 352 352 352 354 356 357 359 359 360 361 362 362 361 362 362 362 363 364 365 366 366 366 368 368 368 370 371 371 371 372 372
317 317 319 319 318 318 320 320 320 320 321 324 324 324 324 324 325 326 327 327 329 331 333 336 339 341 343 343 345 346 347 350 351 351 353 355 357 358 359 360 359 359 359 360 359 360 360 361 361 363 364 365 364 365 366 368 367 369 369 369 371 370 370
316 316 318 319 319 318 319 319 320 320 321 322 323 322 323 324 325 325 326 327 327 329 330 332 335 340 342 343 343 345 346 348 351 352 353 355 356 358 357 358 357 358 357 358 357 358 358 359 359 361 363 364 365 367 370 372 371 369 369 369 368 369 369
315 316 318 319 319 319 318 319 320 320 320 320 320 321 322 323 324 324 325 327 328 328 328 329 331 336 340 341 342 344 346 348 350 352 353 354 356 357 356 357 356 356 355 355 356 356 356 356 356 357 359 360 361 364 368 371 372 371 371 372 371 371 371
315 316 317 317 318 318 318 318 318 319 319 319 319 320 321 321 321 322 324 327 327 326 327 328 330 334 338 340 342 344 345 347 349 351 352 353 356 356 355 356 355 354 354 354 354 355 355 355 354 355 355 357 359 360 361 364 366 368 368 368 366 364 363
316 316 316 316 316 317 317 317 317 318 319 319 319 319 320 320 321 323 325 326 325 325 326 328 330 333 337 339 342 344 345 346 348 350 351 354 355 355 354 354 353 353 353 353 353 354 354 353 353 353 353 354 356 357 356 357 358 360 361 361 358 356 355

ECMWFFLT2_925_thetae_063.txt.gz
Theta_e
328 328 327 330 326 321 323 321 316 319 326 322 314 314 315 312 314 316 313 311 316 321 327 331 333 333 333 334 331 341 353 353 350 353 356 355 353 352 354 355 356 357 356 354 353 353 355 358 359 360 362 361 361 361 361 360 360 360 360 360 360 358 357
327 328 328 329 328 326 322 316 318 325 326 323 318 315 316 315 314 315 312 312 314 312 317 327 331 331 332 333 329 336 349 350 348 353 354 354 352 351 353 356 357 357 356 354 353 353 355 358 359 360 361 362 362 361 362 361 361 361 360 360 361 359 358
327 327 327 326 328 330 325 321 325 325 317 314 316 314 315 317 315 314 312 312 313 311 315 323 327 328 328 332 330 330 343 350 349 350 353 352 353 352 353 355 355 357 356 354 354 353 355 358 358 360 361 362 362 362 361 362 360 361 360 360 360 360 360
327 327 326 319 321 329 329 326 327 325 318 316 316 314 314 316 317 316 314 312 314 319 325 324 325 329 329 331 334 329 337 349 349 347 351 351 352 353 354 354 354 356 355 354 354 355 357 358 358 360 361 362 363 363 363 362 361 361 361 361 361 360 360
323 321 323 321 321 324 323 321 319 319 319 319 319 316 313 315 317 318 318 316 317 329 334 329 327 330 329 331 341 336 335 345 349 349 352 352 352 353 353 354 354 354 354 355 355 356 358 359 359 360 362 362 362 363 363 363 363 362 362 361 361 361 360
317 319 326 328 327 327 325 322 318 318 317 315 315 315 314 313 314 316 318 317 324 338 338 332 330 331 332 331 339 341 337 343 348 348 350 352 352 351 353 352 352 354 355 355 355 356 357 361 361 360 361 362 362 363 364 364 364 363 362 362 361 361 361
322 326 328 329 328 328 329 326 325 325 320 314 311 314 316 312 311 314 314 314 330 351 345 337 333 332 332 331 334 342 341 345 350 349 348 351 353 352 352 350 351 353 353 355 356 357 358 361 363 361 362 362 362 363 364 364 365 364 363 363 361 362 361
326 329 329 329 329 330 326 326 327 325 322 320 318 321 322 315 311 314 312 312 328 353 352 340 336 335 332 333 334 338 340 345 351 349 348 352 353 353 352 350 351 352 351 354 356 358 361 363 363 363 363 363 362 363 364 365 366 365 364 363 362 362 362
322 324 327 325 324 327 325 326 327 326 327 325 322 325 325 317 313 314 315 314 325 351 359 344 340 338 333 332 334 336 340 346 350 349 348 351 353 353 352 351 352 351 353 356 358 360 361 363 365 364 363 364 363 363 364 365 366 366 366 365 364 363 363
324 323 325 322 321 322 326 327 326 327 327 323 321 320 318 318 320 316 315 317 325 344 353 344 340 339 335 337 334 336 336 339 347 353 349 350 353 353 352 351 352 355 358 363 365 365 363 363 365 365 364 364 364 363 364 365 368 368 367 367 366 364 363
330 328 331 334 329 320 319 323 325 326 326 325 324 318 315 325 326 318 323 331 328 331 340 343 340 336 342 342 335 343 348 346 352 355 351 351 353 352 352 351 354 361 365 368 371 369 365 363 365 366 365 365 364 363 363 364 368 369 368 368 368 365 365
330 330 332 335 331 322 319 321 322 325 325 324 323 316 321 336 327 317 333 344 328 329 342 348 345 340 347 345 339 353 362 363 365 358 352 353 351 352 353 352 357 364 365 368 373 371 367 364 365 367 366 365 364 364 364 364 368 369 369 369 368 367 366
326 329 330 331 332 330 326 325 323 324 325 321 319 319 327 338 327 325 346 349 334 337 344 344 348 348 345 344 348 355 357 361 363 357 353 352 350 354 355 350 357 364 363 368 372 372 368 365 365 368 367 366 366 365 365 365 367 369 370 369 369 368 367
325 327 330 331 330 330 330 330 328 327 326 323 321 323 330 336 332 339 357 352 340 340 340 339 345 347 343 344 348 351 352 355 357 354 352 350 354 362 358 352 356 361 362 367 371 372 371 366 365 368 368 367 367 366 366 366 366 368 369 370 369 368 368
325 327 330 330 330 329 327 328 333 331 329 326 323 322 327 333 331 334 347 346 340 337 340 345 347 347 344 344 344 345 348 351 348 349 352 354 362 369 367 364 369 372 373 374 374 375 373 367 365 367 367 368 367 367 368 367 367 368 368 370 370 368 368
326 325 328 330 329 329 326 325 330 331 328 327 324 323 324 331 331 329 333 335 338 341 344 347 348 347 345 345 348 348 349 350 348 349 354 360 365 368 373 379 384 385 385 383 380 376 370 365 365 365 367 369 368 368 369 368 368 368 367 369 370 368 368
326 324 326 330 329 327 328 329 329 331 332 331 328 325 327 332 333 330 332 340 349 348 343 341 345 346 345 346 346 349 353 355 351 347 351 357 360 364 373 379 382 382 384 385 382 377 370 366 366 366 367 368 368 368 368 368 369 368 368 369 369 369 369
324 321 324 334 333 328 331 335 332 332 333 331 330 327 327 331 333 335 344 354 356 349 342 344 346 345 345 346 345 349 355 354 347 344 348 353 359 367 372 372 374 375 379 384 380 372 369 369 367 367 366 367 369 369 367 369 369 368 368 369 369 370 368
323 323 329 335 332 329 334 335 333 334 332 331 334 334 333 330 329 334 343 347 349 348 346 347 348 345 344 348 347 345 349 353 353 352 351 348 353 366 371 374 380 382 381 384 378 369 368 369 368 367 366 366 366 368 367 368 368 368 368 367 369 370 369
325 333 340 337 329 328 334 332 331 335 335 334 337 334 335 338 337 336 341 342 343 346 342 343 346 343 341 344 344 340 347 357 360 361 363 360 357 367 376 383 388 384 376 375 372 365 363 365 366 365 364 364 365 366 365 366 367 367 368 367 368 370 370
324 329 334 332 325 327 332 332 332 334 334 335 336 334 337 343 345 343 342 342 339 339 339 341 343 339 337 341 345 348 355 361 361 361 365 366 364 366 369 372 375 373 367 365 363 360 357 359 361 362 363 362 364 364 365 366 367 367 367 366 367 369 371
321 322 326 327 323 325 331 333 333 331 330 332 337 340 341 343 345 346 344 341 342 339 338 340 340 341 344 349 354 359 363 363 361 361 363 361 361 362 362 363 365 365 363 362 360 360 358 357 357 358 361 362 363 365 366 365 366 367 367 366 365 367 371
317 321 326 327 325 328 334 334 331 330 332 333 339 345 343 341 342 346 346 344 347 348 346 345 343 347 354 359 359 359 362 363 363 363 363 360 359 358 360 363 362 361 362 363 362 362 361 360 360 359 359 361 363 365 365 365 366 366 367 366 364 365 368
319 323 325 324 325 329 332 332 332 333 332 332 343 347 345 340 341 345 346 345 345 347 348 349 349 352 358 361 356 353 356 361 361 362 362 361 359 357 359 363 362 360 362 366 367 368 367 365 366 366 364 364 364 366 366 365 365 365 366 366 365 364 365
319 323 324 323 326 329 330 330 332 335 335 340 349 349 347 340 340 345 345 344 344 343 344 347 349 351 352 351 350 349 353 358 360 360 359 358 358 356 356 360 361 359 361 363 366 368 368 368 369 369 368 367 366 367 368 367 365 364 363 365 365 365 364
316 321 322 322 326 329 328 328 328 333 342 348 348 349 344 336 340 344 342 342 343 342 342 344 346 346 344 343 346 347 350 354 358 360 358 357 357 356 354 355 358 358 360 364 365 366 367 367 367 368 368 367 368 369 370 369 367 364 362 363 364 365 365
317 319 321 326 332 330 325 327 330 334 341 342 342 342 339 335 338 340 339 341 341 342 344 345 345 345 345 343 345 345 347 351 355 358 359 359 357 357 355 355 356 357 359 362 364 366 366 365 365 367 369 369 368 369 370 370 368 365 364 362 363 365 365
317 320 322 330 336 331 323 325 330 331 334 336 336 336 335 334 334 335 337 336 337 339 344 345 345 346 346 344 346 348 349 350 352 356 358 358 357 356 356 357 358 358 359 361 362 363 366 365 363 367 370 369 367 369 370 368 368 367 366 364 365 366 365
319 321 323 326 329 326 321 323 326 325 327 330 330 331 331 331 331 333 334 334 333 336 341 343 345 345 345 346 347 348 349 351 352 355 356 356 356 356 356 359 360 360 360 362 362 363 363 363 364 367 370 370 369 369 369 368 369 369 367 367 367 366 366
320 321 322 325 326 324 321 321 323 322 322 325 327 329 329 329 329 330 330 331 331 334 336 340 342 344 345 346 346 347 348 350 351 354 357 358 356 356 358 360 360 359 360 362 363 364 362 361 363 366 367 367 370 371 370 369 368 366 368 370 370 367 367
321 320 322 326 327 324 322 323 323 321 321 324 326 327 328 329 328 327 328 329 330 331 334 337 339 341 344 346 346 346 348 349 350 353 358 359 358 357 359 360 360 359 361 361 362 362 361 360 361 363 363 364 366 368 368 369 367 365 367 370 371 369 369
320 320 320 321 322 321 322 324 324 322 325 327 326 325 327 328 326 326 326 328 328 329 332 334 336 339 342 344 346 347 348 350 351 354 357 359 359 357 358 358 359 359 360 360 360 360 360 360 360 362 364 364 365 366 367 368 369 369 370 371 372 372 370
318 317 319 321 322 321 321 323 323 322 325 326 325 325 326 325 326 325 325 326 328 329 329 330 334 338 341 342 345 347 348 349 353 357 357 356 355 357 358 357 357 358 358 358 359 358 357 358 358 360 362 363 365 368 368 367 370 371 372 372 372 371 370
317 318 321 323 324 324 323 323 321 322 324 324 325 327 325 324 326 326 325 326 328 329 328 327 330 337 341 342 343 347 349 351 354 358 357 352 352 355 357 356 356 357 356 356 356 356 355 355 355 357 358 360 363 367 369 371 371 370 370 372 372 371 371
317 318 319 320 322 323 322 322 322 324 325 325 326 326 325 325 325 325 327 330 331 330 329 328 330 334 339 340 341 346 350 349 349 350 351 351 353 355 356 356 357 356 354 355 355 355 355 354 354 355 356 358 359 363 368 372 371 369 369 370 371 373 372
317 317 317 318 319 320 319 319 321 323 323 324 325 324 324 325 326 326 328 330 330 329 330 331 331 333 336 339 341 346 348 347 344 345 348 350 351 353 355 356 355 354 354 354 354 354 354 354 354 355 356 356 356 359 363 368 370 369 369 366 365 366 369
315 316 316 316 317 318 318 318 319 320 322 324 324 323 323 324 326 326 326 326 328 328 330 332 333 334 337 340 341 343 344 344 343 345 348 348 350 352 354 354 354 354 353 353 354 354 354 353 353 353 354 354 354 356 359 361 362 362 362 361 359 358 360

ECMWFFLT2_925_thetae_069.txt.gz
Theta_e
325 329 330 328 327 325 327 327 323 325 328 324 320 321 322 316 315 319 317 318 323 322 327 332 327 331 338 340 344 345 344 348 348 348 348 348 349 349 349 351 351 351 349 347 346 347 348 348 349 349 350 351 352 352 353 353 353 353 354 354 354 354 354
324 323 328 328 328 328 326 322 323 327 327 326 322 318 319 316 315 321 319 315 315 315 323 334 331 329 334 337 341 343 344 347 348 348 349 349 350 350 350 351 350 351 350 347 347 347 348 348 349 350 350 351 351 352 352 353 353 353 354 354 354 354 354
323 321 323 323 326 328 326 325 327 327 322 319 320 318 318 318 316 318 319 319 317 315 322 331 328 326 333 337 338 341 343 346 348 347 348 348 349 350 351 352 351 351 350 348 347 347 348 349 348 349 351 350 351 352 352 352 353 353 353 354 354 354 354
322 322 320 317 320 324 325 325 326 329 323 319 319 320 317 318 320 319 317 316 317 321 328 330 328 329 333 337 340 341 341 344 346 347 348 348 349 351 351 352 351 352 351 349 348 348 347 348 349 350 350 351 351 352 352 353 352 353 353 353 354 354 354
321 324 322 318 319 321 321 320 320 322 322 320 320 320 318 321 325 323 318 313 318 331 338 331 331 333 329 333 342 344 341 342 344 346 348 347 348 350 351 351 352 351 351 349 348 348 348 348 349 350 350 351 351 352 352 352 353 353 353 353 353 354 353
323 324 323 322 323 323 321 320 319 320 319 318 318 318 319 320 322 325 321 313 317 335 337 329 331 335 327 328 339 345 344 343 345 346 347 348 348 349 351 351 352 352 351 350 348 348 349 348 349 350 350 351 351 352 352 352 352 352 353 353 353 354 353
320 321 321 321 322 324 325 323 322 323 323 317 314 316 318 316 317 324 322 313 319 338 341 330 327 330 327 325 333 343 346 344 345 345 346 348 349 349 350 350 351 352 351 351 349 349 349 349 350 350 351 351 352 352 353 352 353 353 353 353 353 353 353
321 320 322 322 322 324 325 324 323 323 322 320 319 323 324 318 314 318 318 314 319 342 358 345 332 329 328 323 328 339 346 345 345 345 346 349 350 350 350 350 351 353 351 352 351 350 349 349 350 351 351 352 352 353 353 353 354 353 353 354 354 354 354
329 320 321 327 328 324 320 321 323 323 324 323 324 326 323 318 315 315 316 313 318 341 362 349 337 336 333 327 325 332 341 345 346 347 347 350 351 352 352 351 352 353 352 354 354 351 350 349 351 351 351 353 353 353 354 354 354 354 353 354 354 354 354
329 323 324 326 325 320 316 319 322 322 324 321 321 322 316 317 320 317 315 314 318 335 346 336 332 338 339 333 327 327 335 342 346 348 348 351 352 352 353 352 353 354 354 355 355 353 351 350 351 352 352 353 353 353 355 354 354 354 354 355 355 354 355
321 321 321 318 317 316 316 319 319 319 321 322 323 320 315 321 325 318 316 319 318 325 330 327 327 333 337 337 329 326 333 341 345 349 349 350 352 352 353 353 352 354 355 355 355 353 351 350 351 352 353 353 353 354 355 355 356 355 355 355 355 354 355
316 316 316 314 314 315 315 316 317 318 321 324 323 317 317 326 323 314 321 329 320 319 326 327 326 330 339 341 332 327 333 342 346 350 351 352 352 351 353 353 353 355 354 355 355 354 351 350 351 352 353 354 354 355 355 356 356 356 356 356 356 356 355
314 313 313 312 313 314 315 316 318 320 322 324 323 319 323 329 319 314 331 341 326 321 327 326 324 330 337 338 332 329 334 345 348 349 351 352 351 351 352 352 354 354 354 354 355 354 352 350 350 352 353 354 355 355 356 357 356 357 357 357 356 357 356
313 312 312 313 314 315 316 319 322 324 326 327 326 324 326 329 324 323 337 343 333 326 327 326 329 340 343 341 338 335 339 346 349 349 351 350 350 351 351 352 353 353 353 354 354 354 354 351 350 351 352 354 355 356 356 357 357 358 358 358 357 357 357
313 312 313 314 314 315 318 323 327 330 331 329 325 326 329 326 326 329 334 336 334 332 337 342 349 353 350 346 344 341 343 345 346 348 349 349 350 351 350 351 351 351 353 354 354 355 353 350 350 351 352 353 354 356 357 357 358 359 358 359 358 358 358
314 313 313 313 314 319 325 328 329 333 337 333 330 336 341 334 331 330 329 328 332 340 349 350 350 353 356 358 355 346 342 344 347 347 348 349 350 350 350 351 352 352 353 354 354 355 351 350 350 351 351 353 353 355 356 357 358 358 359 359 359 358 358
316 313 311 314 321 329 335 332 328 333 340 342 343 346 345 342 342 338 332 331 337 346 346 343 353 368 373 375 372 361 350 348 347 346 347 349 350 349 350 351 350 351 351 352 353 352 350 349 351 351 351 352 353 354 356 356 357 358 360 360 359 359 359
316 313 311 322 335 340 339 333 327 328 334 338 343 346 342 341 344 343 343 343 344 347 347 351 367 375 371 367 365 363 361 357 352 349 349 348 347 349 350 349 350 351 350 351 351 350 350 350 350 352 352 353 353 354 355 356 357 358 360 360 360 360 359
317 315 318 335 348 341 335 332 325 326 329 329 337 345 343 339 340 342 346 348 348 358 364 362 364 365 361 360 360 360 363 367 370 374 373 362 353 351 349 348 350 350 351 353 351 349 351 351 351 353 354 354 355 355 356 356 357 358 359 360 361 361 360
317 319 322 334 342 334 331 331 325 324 327 326 332 343 344 339 337 339 344 347 350 359 366 365 364 362 359 359 359 357 359 362 368 375 379 377 372 369 365 363 363 357 352 350 350 349 351 352 353 354 356 356 356 357 356 357 357 358 360 361 361 361 361
318 318 317 323 334 336 334 331 326 323 326 326 329 338 344 340 336 336 340 346 350 353 358 363 364 361 360 362 359 355 355 357 358 362 364 367 371 375 375 373 370 361 352 350 351 351 352 353 354 356 358 359 359 358 358 358 359 359 360 361 362 362 362
317 316 315 320 335 341 335 328 323 322 326 325 325 334 344 341 334 333 338 345 350 352 354 361 363 361 364 366 362 356 354 354 355 357 358 359 362 365 367 367 363 358 357 358 358 357 358 357 356 357 359 360 361 361 360 360 360 360 361 361 362 363 363
314 314 314 318 329 336 331 326 323 323 327 326 327 339 348 342 332 331 336 343 349 351 355 362 365 364 365 366 362 356 355 355 354 356 358 359 359 359 361 363 363 361 361 362 362 362 362 362 361 360 360 362 362 362 362 362 361 361 361 361 362 362 364
314 315 315 317 326 333 328 324 325 325 326 328 335 348 351 339 332 330 331 337 344 348 352 358 361 362 364 363 359 354 353 355 355 356 358 359 359 359 357 359 360 360 361 361 361 362 363 364 363 361 361 363 364 363 363 363 363 363 362 362 362 363 364
315 317 315 315 325 331 326 324 327 327 329 335 343 348 343 336 334 332 328 331 336 341 348 352 355 357 357 355 354 352 353 355 356 356 357 357 358 359 358 358 359 359 359 360 359 360 362 364 364 363 363 365 364 364 364 363 363 363 363 363 363 363 363
315 316 314 317 326 327 323 325 329 329 333 340 342 340 336 333 334 331 327 326 329 334 342 346 347 349 348 348 351 351 351 354 355 355 356 357 357 357 359 358 358 357 358 358 358 360 362 363 364 363 364 365 365 364 363 363 363 364 364 364 364 364 365
317 316 316 324 330 326 322 326 329 329 332 336 335 333 332 331 330 329 327 327 326 329 335 338 340 343 343 344 347 348 350 352 353 354 356 356 357 357 357 358 357 356 356 356 356 358 360 361 363 362 363 364 364 364 364 365 365 364 363 365 364 364 365
320 321 324 327 326 324 323 327 329 329 329 330 332 332 329 328 328 327 327 327 325 326 329 332 334 337 340 341 343 346 348 349 350 353 353 354 355 355 355 356 356 355 354 354 354 356 358 359 360 361 362 363 363 363 365 367 367 365 364 364 364 363 364
318 321 326 326 323 324 326 328 328 329 328 328 329 329 327 327 327 326 327 327 325 325 328 329 331 333 335 337 340 342 344 345 347 350 351 351 353 353 353 354 355 354 354 354 353 354 356 357 357 358 360 361 362 362 363 365 367 368 367 365 366 364 363
315 317 321 321 320 323 325 327 327 327 326 325 327 327 326 326 327 327 327 326 325 326 327 330 332 332 332 334 337 340 342 343 344 346 348 349 349 350 352 353 353 353 353 353 353 353 354 356 357 357 358 359 360 361 362 363 366 368 368 368 368 367 364
314 316 317 316 316 318 322 324 324 322 321 322 324 325 326 326 327 327 327 326 325 325 326 329 331 333 333 335 337 338 339 340 342 344 346 347 347 348 350 352 353 352 352 351 351 351 351 354 356 356 357 358 358 359 361 362 364 366 368 370 370 368 366
314 314 313 313 314 316 319 321 320 318 317 317 318 320 322 325 328 327 326 326 326 325 326 329 330 332 334 335 336 338 339 339 340 342 345 345 344 345 348 351 351 351 350 350 350 350 350 352 354 354 355 356 357 358 360 361 362 365 367 370 370 369 367
313 313 312 313 315 316 317 317 317 317 316 315 315 315 316 319 324 326 325 325 325 325 326 329 331 332 333 335 337 338 338 338 338 340 342 342 341 342 345 348 349 350 350 350 350 350 351 351 353 353 353 353 355 356 357 360 361 363 366 369 369 369 368
313 313 312 313 313 314 314 312 312 315 316 314 314 315 314 314 319 324 324 324 325 326 326 328 331 332 331 333 338 340 339 338 338 339 339 338 338 341 343 345 347 348 349 350 350 350 351 351 352 352 352 353 354 354 354 355 357 359 364 368 369 370 368
312 311 311 310 310 311 311 310 310 313 314 313 313 315 314 313 317 322 323 323 327 328 326 326 328 330 331 332 337 341 340 336 334 336 338 337 338 341 342 343 346 347 348 349 350 351 351 351 351 351 352 351 352 353 353 354 354 357 360 366 369 369 370
310 309 309 309 310 310 310 310 310 311 311 313 313 314 314 315 318 321 321 322 326 328 328 326 325 326 329 330 334 342 342 334 331 336 339 337 338 341 342 343 344 346 347 347 348 350 351 351 350 351 351 350 352 353 355 356 357 358 361 365 368 369 369
309 310 309 309 310 310 309 310 310 309 309 311 312 313 314 317 321 322 321 322 324 326 328 327 324 323 325 326 330 337 338 332 332 337 338 335 336 340 342 343 344 346 347 347 347 348 350 350 350 351 349 349 351 353 355 356 358 360 361 364 366 368 369

ECMWFFLT2_925_thetae_072.txt.gz
Theta_e
320 322 325 326 328 328 327 327 325 326 330 328 323 325 326 318 319 323 320 320 323 324 330 330 327 329 330 334 342 344 345 348 348 349 348 347 348 348 348 350 349 349 348 346 346 347 347 348 348 349 350 351 352 352 352 353 353 353 353 354 354 354 354
321 317 321 325 327 331 328 324 325 327 328 329 325 322 322 320 322 326 322 319 317 316 326 335 330 330 331 332 339 343 345 348 348 348 347 347 347 347 348 349 349 349 348 346 346 346 347 347 348 349 350 351 351 352 352 353 353 353 353 353 354 354 354
321 318 320 322 326 329 328 327 328 328 325 325 323 323 324 324 324 325 321 320 320 316 323 332 329 330 333 332 336 342 344 346 347 346 347 347 346 347 348 348 349 349 349 347 346 346 347 347 348 348 349 350 351 351 352 352 352 353 353 353 353 354 354
318 320 320 320 322 326 327 327 328 330 327 324 324 324 324 325 326 325 320 318 320 323 328 331 329 332 333 330 333 339 341 344 346 344 346 347 346 347 347 347 348 349 348 347 346 346 346 347 348 348 349 350 350 351 352 352 352 353 353 353 353 354 354
319 323 322 320 322 323 324 323 322 325 325 323 325 323 321 325 327 325 321 318 323 334 336 332 331 333 330 330 333 335 338 342 343 344 345 345 346 346 347 346 348 348 348 347 346 347 346 346 348 347 348 349 350 351 351 352 352 352 352 353 353 353 353
318 321 319 318 320 320 320 322 322 323 322 321 323 322 319 320 324 326 324 319 324 337 337 330 331 330 327 328 330 332 336 339 342 344 344 346 346 346 346 346 346 347 347 347 347 347 346 346 347 348 348 349 350 350 351 351 352 352 352 353 353 353 353
315 315 314 315 317 317 319 322 323 323 322 320 320 322 322 318 320 326 326 319 323 339 342 331 326 327 325 325 329 332 334 336 340 343 343 345 346 346 346 345 345 347 347 346 347 346 346 346 347 347 348 348 349 350 350 351 352 352 352 352 352 353 353
318 316 316 317 317 317 320 322 319 318 321 320 318 322 324 320 318 321 323 319 321 336 348 336 328 330 327 323 327 333 335 335 338 341 342 345 346 346 347 346 346 348 347 348 348 347 347 346 347 347 348 348 349 350 350 351 351 351 352 352 352 352 353
327 322 322 323 322 318 316 317 316 316 318 319 319 321 321 319 319 318 321 319 319 332 350 345 337 337 334 330 328 329 334 336 337 340 342 345 347 347 347 347 348 350 350 351 351 349 346 346 347 347 347 348 349 349 350 350 351 352 352 352 352 352 353
329 325 325 324 320 315 314 315 314 315 316 316 320 323 319 319 322 319 318 318 319 329 343 341 339 340 339 340 336 329 329 333 338 342 342 343 347 348 348 348 349 351 352 353 353 350 347 346 347 347 348 349 349 349 350 350 351 351 351 352 352 352 352
321 321 319 316 314 314 314 315 314 314 315 315 320 324 322 325 327 319 319 321 320 325 333 333 336 335 332 336 339 335 331 329 333 341 344 344 345 347 348 348 349 353 354 354 353 351 348 346 347 348 348 349 349 350 350 350 351 351 351 352 352 352 352
315 315 314 313 314 314 313 314 313 314 315 315 319 323 324 329 325 317 321 326 319 320 329 332 333 332 330 335 338 338 336 330 328 334 342 346 345 345 348 348 350 354 354 354 354 351 349 347 347 348 348 349 349 350 350 350 351 351 351 351 352 352 352
314 313 313 312 312 312 312 313 313 314 315 315 319 323 323 326 325 319 324 333 326 321 327 329 328 331 328 330 335 334 332 331 327 327 337 344 344 344 348 349 351 353 354 354 354 352 349 348 348 348 349 349 350 350 350 351 351 351 352 351 352 352 352
314 312 312 312 312 313 313 313 314 314 316 319 323 326 326 326 327 323 326 333 329 324 330 328 330 340 337 332 337 336 330 330 330 328 332 340 344 345 347 349 350 351 353 354 354 354 352 349 348 349 349 349 350 350 351 351 351 352 352 352 352 352 352
315 313 313 313 312 313 312 313 316 318 323 331 334 333 332 330 328 325 326 327 325 329 339 336 342 364 367 360 362 356 341 334 336 336 335 339 345 346 347 349 349 350 353 354 354 355 353 350 348 349 350 350 350 351 351 352 352 352 352 352 352 352 352
317 314 314 313 311 314 316 318 322 325 328 335 339 340 339 335 336 336 327 321 325 338 340 336 349 376 380 371 371 366 353 346 344 343 342 343 346 348 348 349 351 351 352 353 354 354 352 349 349 349 350 351 351 351 351 352 353 353 353 353 353 353 353
319 315 312 313 316 324 330 328 326 327 328 330 334 341 342 338 341 345 334 327 337 344 342 346 361 374 371 362 360 360 359 358 354 347 346 346 345 348 350 350 351 351 351 351 353 352 350 349 349 349 350 351 351 351 352 353 353 354 354 354 354 354 353
320 316 312 318 327 334 337 330 323 324 327 327 329 336 341 338 338 341 339 339 342 343 349 361 367 365 362 359 357 356 357 359 358 352 348 348 347 347 348 350 350 350 351 351 350 349 349 349 349 349 350 351 352 352 353 353 354 354 355 355 354 355 354
318 318 318 329 337 333 330 328 323 323 326 326 327 333 338 337 335 335 337 338 341 344 353 362 363 362 359 357 356 356 355 356 357 358 354 352 352 351 349 350 351 351 352 353 351 349 349 350 350 349 350 351 352 353 354 354 355 355 355 355 355 355 356
317 320 323 331 333 326 327 330 325 322 324 326 328 334 338 335 333 333 334 334 338 345 351 355 360 362 358 355 356 356 355 356 356 360 365 362 355 352 352 352 353 353 351 350 349 349 349 349 350 350 350 351 352 353 354 355 355 356 356 356 356 356 356
317 319 321 323 324 326 332 332 325 321 323 325 327 332 337 334 330 331 333 332 335 342 350 355 359 360 359 360 360 355 354 356 356 357 363 364 359 354 353 351 349 347 346 347 348 349 349 349 350 349 350 351 352 353 354 355 356 357 356 357 357 357 357
316 318 318 321 327 332 332 327 322 320 322 322 324 329 336 334 328 329 332 332 332 339 350 359 363 365 367 369 364 356 354 355 355 355 358 360 363 362 358 352 347 344 345 347 348 348 349 349 350 350 350 351 352 353 354 355 356 356 357 358 357 357 358
315 317 318 321 326 331 329 323 321 321 321 321 325 334 340 334 326 328 332 332 331 336 347 358 361 365 370 370 363 356 354 354 354 356 358 359 362 362 358 353 350 347 348 349 349 349 350 350 350 350 351 351 352 353 354 354 355 356 357 357 358 358 358
313 315 318 317 321 326 325 322 321 321 321 323 332 344 344 332 326 328 331 332 331 333 343 353 356 360 365 365 358 354 353 353 353 355 357 358 360 360 357 355 354 352 352 352 351 350 350 351 351 352 352 353 354 354 354 354 355 356 356 357 358 358 358
313 315 317 316 321 325 323 320 321 323 326 331 339 343 336 328 328 328 329 331 332 331 339 348 350 352 353 352 349 348 349 351 352 352 355 356 357 359 359 359 358 358 357 356 355 354 353 353 353 354 354 355 356 355 355 355 355 356 356 356 357 358 359
314 316 315 317 324 325 320 320 323 326 332 336 336 333 328 325 327 326 326 330 331 332 337 342 342 343 342 342 343 344 344 348 350 350 352 354 355 356 357 358 359 359 359 359 359 359 358 356 356 356 356 357 358 358 357 357 357 356 356 356 357 358 358
314 314 315 321 326 324 319 322 325 325 327 329 327 326 326 325 325 324 324 327 329 330 334 336 335 336 337 338 340 341 341 343 345 347 350 352 353 354 353 355 356 357 357 358 357 359 360 359 358 359 359 360 360 360 359 359 359 359 358 358 358 358 359
316 316 319 322 323 320 320 324 325 323 322 322 323 324 324 323 324 324 323 324 326 327 328 331 332 333 334 335 337 338 339 340 341 344 347 348 351 352 352 352 353 353 354 355 355 356 358 360 361 361 361 362 362 362 363 363 361 361 361 361 361 361 360
315 316 319 322 323 321 322 323 321 319 319 318 318 320 320 319 321 322 322 322 323 323 324 327 330 331 332 332 333 334 337 338 339 341 343 345 348 350 351 351 351 351 352 352 352 353 355 357 360 361 362 363 363 363 365 365 364 362 362 362 362 362 362
313 313 315 318 319 319 320 319 318 317 317 316 316 316 317 316 318 320 321 321 322 322 323 326 327 329 331 332 331 331 333 335 337 339 340 342 344 346 349 350 350 349 350 350 350 351 352 353 356 358 360 362 362 362 364 365 366 364 362 362 362 362 362
314 316 316 313 312 314 317 317 317 316 315 315 315 315 316 315 316 317 318 319 321 322 322 324 324 323 325 329 330 331 330 331 335 337 338 339 341 343 346 348 349 348 348 349 350 349 349 351 353 354 357 359 360 362 363 364 366 366 365 365 364 363 363
313 315 313 311 311 313 315 316 316 316 315 314 314 314 315 315 316 316 315 318 321 321 322 324 322 318 319 323 326 329 330 330 332 335 337 337 338 340 342 345 347 348 347 347 348 348 348 350 351 352 354 355 357 359 360 361 364 366 368 368 367 366 366
311 312 311 311 312 313 314 314 314 315 315 314 314 314 314 314 315 315 315 318 320 318 319 323 322 318 317 319 322 326 329 329 330 333 336 336 336 339 341 342 344 346 346 347 347 347 348 350 351 351 352 353 353 354 355 356 359 362 366 368 368 368 366
312 312 311 311 311 312 312 311 311 312 314 314 313 313 313 313 314 314 315 318 319 317 317 321 322 319 317 318 320 324 328 329 329 331 334 335 335 337 340 341 343 345 346 347 347 347 348 349 350 350 352 353 353 353 353 354 355 358 362 366 368 368 367
311 311 310 310 310 310 310 309 309 311 313 313 312 312 313 313 313 314 315 317 319 318 317 319 322 321 318 317 319 323 327 328 329 331 333 334 334 336 339 340 342 343 344 346 347 347 348 349 348 349 351 352 354 355 355 356 356 356 359 364 367 368 368
310 310 309 310 310 310 310 310 310 310 312 312 312 312 313 313 313 314 315 317 320 320 318 318 320 321 319 317 319 323 326 327 329 332 334 333 334 336 338 339 340 342 343 344 345 347 348 349 348 349 350 352 353 354 355 356 358 358 360 363 366 367 368
310 310 309 309 310 310 310 310 310 311 311 311 311 312 313 313 314 314 315 317 320 320 320 320 319 319 319 318 318 321 325 327 330 333 333 332 333 336 337 337 338 340 340 341 344 347 349 348 347 348 349 351 352 353 354 355 357 359 361 363 365 366 367

ECMWFFLT2_925_thetae_075.txt.gz
Theta_e
319 320 319 322 323 321 324 324 321 324 326 324 318 317 320 318 316 318 317 317 320 322 326 329 328 328 329 331 332 332 337 343 346 347 348 349 350 349 349 350 350 350 350 352 352 352 353 353 353 354 355 356 357 357 357 357 357 357 357 357 357 356 356
319 318 318 320 321 323 323 321 322 326 328 326 321 319 321 319 317 318 315 314 315 316 321 329 331 329 328 330 331 331 335 341 344 345 347 349 350 350 350 350 351 350 350 351 351 351 352 352 353 354 355 356 356 357 357 357 358 358 357 357 357 357 357
319 317 319 321 321 324 324 323 326 326 323 322 322 321 322 320 319 319 316 314 314 314 318 325 329 331 330 330 332 332 334 339 342 343 346 349 349 350 350 350 350 350 350 351 351 350 351 352 352 354 355 355 355 356 356 356 357 358 357 357 357 357 357
318 318 320 320 321 324 325 325 327 326 322 322 322 322 321 320 321 320 318 315 314 316 322 324 328 332 331 332 335 335 334 338 341 342 345 348 349 350 351 349 350 349 349 350 351 350 350 351 352 353 354 354 355 355 356 356 357 357 357 357 357 357 357
316 318 320 319 319 322 322 322 323 324 323 323 324 323 320 319 320 320 320 317 314 319 328 327 328 332 332 333 337 338 335 336 340 343 345 347 349 350 350 349 349 349 349 350 350 350 350 350 351 352 352 353 354 354 355 356 356 357 357 357 357 357 357
316 318 319 317 317 317 318 319 320 320 321 321 322 322 320 319 319 319 320 318 316 322 331 329 326 330 332 333 335 337 336 335 338 343 345 347 349 349 349 349 348 348 349 350 350 350 350 350 351 351 352 353 353 354 355 355 356 356 356 357 357 358 357
317 317 317 316 316 315 316 318 319 320 321 319 320 322 321 319 319 318 318 317 319 326 334 332 329 330 329 330 333 334 334 335 337 341 343 346 350 349 347 347 347 348 349 350 351 351 350 350 351 351 351 352 353 354 355 355 356 356 356 356 357 357 357
317 316 317 317 316 317 318 318 317 318 319 318 318 321 321 320 319 319 319 319 321 327 334 333 330 330 328 326 327 328 331 334 336 339 342 346 349 350 348 347 347 348 349 351 352 352 351 351 351 351 351 352 353 354 354 354 355 355 355 356 357 357 357
319 319 320 319 318 317 317 317 316 316 316 317 318 321 321 320 318 319 320 319 320 328 340 336 331 331 329 326 325 324 326 330 332 335 339 346 351 352 349 348 349 348 350 353 354 354 353 352 351 351 352 352 352 353 354 354 355 355 355 356 356 357 357
322 323 322 319 318 317 316 316 316 315 315 316 318 322 322 320 320 319 319 318 321 330 339 336 332 332 331 331 330 326 326 328 332 336 339 342 350 353 352 350 350 351 353 355 356 356 354 352 351 352 352 352 353 353 354 354 354 355 355 356 356 357 356
318 319 317 314 314 316 316 316 316 315 315 315 318 322 322 322 322 319 319 322 321 323 332 334 332 332 334 336 335 331 332 331 333 340 345 343 345 350 352 351 352 355 358 358 357 357 354 351 351 352 352 352 352 353 354 353 354 355 355 356 356 356 356
313 314 314 312 313 315 315 315 315 315 315 316 317 321 322 324 323 319 325 332 324 321 329 332 331 335 336 338 336 333 337 336 333 339 344 342 342 346 349 351 354 356 358 359 358 356 354 352 351 351 352 351 352 354 354 353 354 355 355 356 356 356 356
312 312 312 312 312 314 314 314 315 315 316 316 318 320 320 324 325 324 330 337 330 326 327 327 334 338 335 333 333 330 330 330 330 333 335 335 337 342 346 350 355 357 356 358 358 356 354 353 352 352 352 352 353 353 353 354 354 355 356 356 356 356 356
312 312 312 312 312 314 314 314 314 315 316 316 319 323 324 326 327 326 329 334 332 329 330 334 341 342 338 336 336 337 339 339 337 335 331 328 330 334 342 348 352 354 355 357 358 357 356 354 352 352 352 353 353 353 353 354 354 355 356 355 355 356 356
314 313 313 313 313 314 314 314 315 316 317 319 324 331 336 335 332 330 330 331 331 333 338 343 345 344 347 350 349 352 356 354 352 349 341 334 329 329 335 343 349 352 354 356 358 358 357 355 353 353 353 353 352 352 353 354 354 355 355 355 356 356 357
315 313 313 313 313 314 315 316 317 319 322 327 332 337 340 340 338 338 335 332 334 338 340 345 349 350 355 359 357 357 357 356 356 357 354 349 340 333 332 337 345 351 351 354 357 355 354 354 354 353 353 353 352 352 353 353 354 355 354 355 356 356 357
315 313 313 314 315 317 319 319 319 322 327 331 334 338 339 338 337 339 338 335 337 339 339 344 352 356 357 358 357 356 357 357 357 357 357 357 351 342 336 335 339 345 348 350 354 354 353 353 353 352 352 353 353 353 354 354 354 354 354 355 356 356 357
314 314 314 316 319 322 324 323 323 325 328 331 334 337 336 333 333 334 336 336 336 337 337 341 348 355 357 357 356 356 357 358 357 357 356 358 355 349 341 336 336 342 349 351 353 355 355 353 352 352 352 353 354 354 355 355 355 355 355 355 356 357 357
314 314 315 320 324 323 323 324 323 324 326 327 332 335 332 329 330 330 332 334 334 335 336 337 342 351 356 354 355 357 356 357 358 358 356 357 358 353 345 339 342 346 352 353 354 355 354 352 353 353 352 353 355 354 355 355 355 356 356 357 357 357 357
314 314 317 323 324 320 322 325 322 323 326 327 332 338 332 327 327 328 329 331 331 332 334 335 339 349 353 352 354 356 356 356 357 357 356 356 357 357 351 345 348 352 352 351 353 354 353 352 353 353 353 353 354 355 355 355 355 356 357 358 358 357 357
314 314 317 320 320 321 328 329 322 321 324 325 330 338 334 326 324 326 327 328 329 331 333 334 341 350 354 355 356 355 353 355 356 356 356 355 356 357 353 347 351 355 353 352 354 355 354 353 352 352 353 354 355 356 355 355 356 357 357 358 358 357 357
313 315 316 318 319 323 329 328 320 319 322 322 324 333 335 327 323 324 324 325 328 330 331 334 344 353 357 359 359 354 350 353 355 355 355 355 356 356 351 347 351 354 353 354 355 355 354 353 353 354 354 356 357 358 356 357 358 358 358 358 358 358 358
313 314 315 317 320 323 326 324 320 319 322 321 324 335 338 329 323 324 323 323 326 328 329 333 345 355 360 361 358 351 349 351 352 354 356 355 356 357 353 348 350 354 355 355 354 355 355 354 354 354 355 357 358 358 357 357 357 358 358 359 359 359 359
314 314 315 316 317 321 322 321 321 321 321 323 330 342 341 328 324 324 322 322 324 326 327 331 340 348 352 353 351 348 347 348 349 351 355 355 356 358 356 353 352 355 357 357 354 354 355 355 354 354 355 357 358 358 357 357 357 358 359 360 360 360 360
313 314 315 315 317 320 321 321 322 322 324 330 339 342 334 325 325 325 322 321 323 324 325 330 335 339 340 341 343 343 343 345 346 348 351 354 356 358 360 359 358 356 356 356 354 354 355 355 354 354 356 359 360 360 360 358 359 359 360 361 360 360 360
313 314 315 315 318 321 321 322 323 323 328 336 337 331 324 322 324 323 321 321 322 322 325 327 328 332 334 335 337 337 338 342 344 344 347 351 354 356 359 361 361 359 358 356 354 354 354 354 355 355 356 359 361 361 361 360 360 361 360 360 359 359 360
314 315 315 316 319 321 321 323 324 324 326 328 324 322 321 320 320 320 320 320 319 321 324 325 324 326 328 329 331 333 334 337 339 341 343 346 350 353 355 357 359 361 362 361 359 357 355 354 356 355 356 360 361 361 361 361 360 360 359 358 359 360 361
316 316 316 317 319 319 319 322 323 321 319 318 317 318 319 318 317 318 319 318 316 317 321 323 324 324 323 322 326 331 333 333 335 338 340 342 346 350 353 355 357 359 361 363 363 362 360 359 358 356 357 361 362 361 361 360 358 358 358 357 359 361 362
315 316 315 316 318 318 317 318 318 317 315 314 315 315 316 317 317 317 318 318 316 315 317 319 321 322 320 317 321 327 331 333 334 336 338 339 342 347 350 353 355 357 359 361 362 363 364 364 362 360 360 362 363 363 361 358 356 357 357 357 359 361 362
313 313 313 313 314 316 317 316 315 315 314 314 314 314 314 315 316 315 316 317 316 316 317 316 317 319 319 317 317 322 328 332 333 334 336 337 339 344 348 350 353 355 357 358 360 361 362 363 364 365 364 364 365 364 361 356 355 356 357 358 360 361 363
312 314 314 312 312 314 315 315 315 314 314 314 314 314 314 314 314 314 315 315 315 315 316 315 316 317 318 317 317 318 324 329 331 333 335 336 337 341 345 348 351 354 355 357 358 358 359 360 362 364 365 365 365 364 361 359 357 356 357 358 359 360 363
312 314 312 311 311 313 315 315 315 314 313 313 313 314 313 313 314 314 314 314 315 315 315 315 316 317 318 318 317 317 321 326 330 332 333 334 335 339 342 345 349 352 353 355 355 356 356 357 358 360 361 363 364 365 366 364 362 360 358 358 359 360 361
312 312 311 311 312 314 314 314 314 313 312 312 313 313 313 313 313 314 314 314 314 315 315 315 315 317 318 318 317 318 320 323 328 332 332 332 334 337 340 342 345 349 351 353 354 354 354 355 356 357 357 358 360 363 366 368 367 365 362 361 361 361 362
313 312 312 311 312 313 313 312 312 312 311 311 313 313 313 313 313 313 314 314 314 315 316 315 315 317 319 317 317 318 319 321 327 331 332 332 333 336 338 340 342 345 348 350 353 354 353 354 355 355 355 355 356 358 361 366 369 368 365 364 364 364 364
312 312 311 311 311 311 311 311 311 311 311 311 312 313 313 314 314 313 314 314 314 315 316 316 316 317 317 316 317 318 318 321 327 331 332 331 332 333 335 337 339 341 344 347 350 352 352 353 354 355 354 354 354 355 357 360 365 368 368 369 369 368 367
312 311 310 311 311 311 311 310 311 311 311 311 312 312 313 314 314 314 313 314 314 315 316 317 317 318 317 316 317 317 317 320 327 331 331 331 330 332 333 335 336 338 340 342 345 349 352 352 352 353 354 353 353 355 356 357 361 364 368 371 372 370 369
311 311 310 310 311 311 311 311 311 311 311 312 312 312 313 315 315 315 314 313 314 315 316 317 318 318 317 317 318 318 317 320 326 330 331 330 329 330 332 333 333 335 337 339 342 347 350 351 351 352 352 351 351 353 355 357 359 362 365 368 369 369 368